Location: Sweet Grass
(48.9965°N, 111.9649°W)
Time: 07:44:50
(UTC+00:00)

EO-79 - Pass Details

Date: 03 April 2023
Orbit: 578 x 593 km, 98.0° (Epoch: 02 June)

Event Time Altitude Azimuth Distance (km) Brightness Sun altitude
Rises 10:52:36 0° 2° (N) 2,831 ? -20.3°
Reaches altitude 10° 10:55:08 10° 348° (NNW) 1,922 ? -20.0°
Enters shadow 10:58:08 22° 302° (WNW) 1,302 ? -19.6°
